Regional Weather Roundup
Issued by NWS

Home | Current Version | Previous Version | Graphics & Text | Print | Product List | Glossary On
Versions: 1 2 3 4 5 6 7 8 9 10 11 12 13 14 15 16 17 18 19 20 21 22 23 24 25 26 27 28 29 30 31 32 33 34 35 36 37 38 39 40 41 42 43 44 45 46 47 48 49 50
000
ASUS43 KMKX 221220
RWRWI

WISCONSIN REGIONAL WEATHER ROUNDUP
NATIONAL WEATHER SERVICE MILWAUKEE/SULLIVAN WI
700 AM CDT SUN APR 22 2018

NOTE: "FAIR" INDICATES FEW OR NO CLOUDS BELOW 12,000 FEET WITH NO
SIGNIFICANT WEATHER AND/OR OBSTRUCTIONS TO VISIBILITY.

WIZ001-002-006>008-014>016-023>028-221300-
NORTHWEST WISCONSIN

CITY           SKY/WX    TMP DP  RH WIND       PRES   REMARKS
SUPERIOR ARPT  FAIR      26  23  91 CALM      30.39R
6HR MIN TEMP:  22; 6HR MAX TEMP:  32;

ASHLAND        FAIR      30  24  78 SW5       30.37R WCI  25
6HR MIN TEMP:  23; 6HR MAX TEMP:  32;

HAYWARD        FAIR      27  22  81 CALM      30.38R
6HR MIN TEMP:  24; 6HR MAX TEMP:  29;

SIREN          FAIR      26  21  80 CALM      30.37R
6HR MIN TEMP:  24; 6HR MAX TEMP:  30;

CUMBERLAND     FAIR      28  19  69 CALM      30.37R
RICE LAKE      FAIR      28  27  95 CALM      30.38R
6HR MIN TEMP:  27; 6HR MAX TEMP:  31;

CHETEK         FAIR      27  25  89 CALM      30.37R
6HR MIN TEMP:  26; 6HR MAX TEMP:  30;

LADYSMITH      FAIR      33  28  85 NE3       30.39S
6HR MIN TEMP:  29; 6HR MAX TEMP:  32;

EAU CLAIRE     FAIR      30  28  92 CALM      30.37R
6HR MIN TEMP:  27; 6HR MAX TEMP:  36;

MENOMONIE      FAIR      33  31  92 CALM      30.38R
6HR MIN TEMP:  31; 6HR MAX TEMP:  38;

NEW RICHMOND   FAIR      31  28  88 CALM      30.37R
6HR MIN TEMP:  30; 6HR MAX TEMP:  33;

OSCEOLA        FAIR      30  27  90 CALM      30.40R
6HR MIN TEMP:  29; 6HR MAX TEMP:  32;

$$

WIZ003>005-009-010-017-018-221300-
NORTH CENTRAL WISCONSIN

CITY           SKY/WX    TMP DP  RH WIND       PRES   REMARKS
MANITOWISH WTR FAIR      22  21  96 CALM      30.37R
6HR MIN TEMP:  20; 6HR MAX TEMP:  28;

ARBOR VITAE    FAIR      27  21  79 CALM      30.37R
6HR MIN TEMP:  24; 6HR MAX TEMP:  32;

WOODRUFF       FAIR      27  21  79 CALM      30.37R
6HR MIN TEMP:  24; 6HR MAX TEMP:  32;

RHINELANDER    FAIR      29  23  78 CALM      30.38R
6HR MIN TEMP:  25; 6HR MAX TEMP:  33;

EAGLE RIVER    FAIR      25  19  80 CALM      30.37S
6HR MIN TEMP:  22; 6HR MAX TEMP:  29;

LAND O LAKES   FAIR      26  21  82 CALM      30.39R
6HR MIN TEMP:  20; 6HR MAX TEMP:  28;

PHILLIPS       FAIR      27  24  87 CALM      30.37R
6HR MIN TEMP:  23; 6HR MAX TEMP:  29;

TOMAHAWK       FAIR      23  21  91 CALM      30.38R
6HR MIN TEMP:  21; 6HR MAX TEMP:  28;

MEDFORD        FAIR      28  25  89 NE5       30.36R WCI  22
6HR MIN TEMP:  26; 6HR MAX TEMP:  32;

MERRILL          N/A     28  25  89 CALM      30.39R
6HR MIN TEMP:  24; 6HR MAX TEMP:  29;

$$

WIZ029-030-035-036-043>047-221300-
CENTRAL WISCONSIN

CITY           SKY/WX    TMP DP  RH WIND       PRES   REMARKS
WAUSAU         FAIR      28  26  92 CALM      30.37R
6HR MIN TEMP:  28; 6HR MAX TEMP:  33;

MOSINEE        PTCLDY    32  27  80 NE5       30.38R WCI  27
MARSHFIELD     FAIR      33  27  78 CALM      30.36R
6HR MIN TEMP:  29; 6HR MAX TEMP:  39;

STEVENS POINT  FAIR      26  24  92 CALM      30.39R
6HR MIN TEMP:  23; 6HR MAX TEMP:  30;

WAUPACA        FAIR      31  29  90 CALM      30.40R
6HR MIN TEMP:  28; 6HR MAX TEMP:  33;

WAUTOMA        FAIR      31  27  85 N3        30.39R
6HR MIN TEMP:  26; 6HR MAX TEMP:  31;

WISC RAPIDS    FAIR      29  23  78 CALM      30.38R
6HR MIN TEMP:  26; 6HR MAX TEMP:  34;

CAMP DOUGLAS   FAIR      28  28  98 CALM      30.37R
6HR MIN TEMP:  26; 6HR MAX TEMP:  32;

$$

WIZ011>013-019>022-031-037>040-048>050-221300-
NORTHEAST WISCONSIN

CITY           SKY/WX    TMP DP  RH WIND       PRES   REMARKS
ANTIGO         FAIR      29  28  93 CALM      30.39R
6HR MIN TEMP:  27; 6HR MAX TEMP:  31;

SHAWANO        FAIR      32  29  89 CALM      30.40R
6HR MIN TEMP:  29; 6HR MAX TEMP:  35;

OCONTO         FAIR      28  26  91 CALM      30.40R
6HR MIN TEMP:  25; 6HR MAX TEMP:  30;

STURGEON BAY   FAIR      38  20  48 S3        30.41R
6HR MIN TEMP:  32; 6HR MAX TEMP:  41;

GREEN BAY      FAIR      31  29  92 CALM      30.40R
6HR MIN TEMP:  29; 6HR MAX TEMP:  36;

MANITOWOC      FAIR      32  27  81 CALM      30.40R
6HR MIN TEMP:  26; 6HR MAX TEMP:  34;

APPLETON       PTCLDY    37  27  65 CALM      30.37R
CLINTONVILLE   FAIR      28  25  86 CALM      30.40R
6HR MIN TEMP:  26; 6HR MAX TEMP:  32;

OSHKOSH        FAIR      33  31  92 CALM      30.38R FOG
6HR MIN TEMP:  29; 6HR MAX TEMP:  37;

$$

WIZ032>034-041-042-053>061-221300-
SOUTHWEST WISCONSIN

CITY           SKY/WX    TMP DP  RH WIND       PRES   REMARKS
LA CROSSE      FAIR      36  32  85 E3        30.37R
6HR MIN TEMP:  34; 6HR MAX TEMP:  42;

SPARTA         FAIR      27  25  94 CALM      30.39R
6HR MIN TEMP:  25; 6HR MAX TEMP:  30;

VIROQUA        FAIR      39  33  80 E6        30.36S WCI  35
6HR MIN TEMP:  38; 6HR MAX TEMP:  46;

BOSCOBEL       FAIR      40  35  83 NE6       30.36S
6HR MIN TEMP:  34; 6HR MAX TEMP:  40;

PRAIRIE DU CHI FAIR      40  34  78 CALM      30.35R
6HR MIN TEMP:  39; 6HR MAX TEMP:  42;

PLATTEVILLE    FAIR      41  31  67 E8        30.35R
6HR MIN TEMP:  41; 6HR MAX TEMP:  45;

$$

WIZ056-057-062-063-064-067-068-221300-
SOUTH CENTRAL WISCONSIN

CITY           SKY/WX    TMP DP  RH WIND       PRES   REMARKS
REEDSBURG      FAIR      34  34  99 CALM      30.38S
6HR MIN TEMP:  31; 6HR MAX TEMP:  37;

BARABOO/DELLS  FAIR      31  28  88 CALM      30.38R
6HR MIN TEMP:  28; 6HR MAX TEMP:  36;

LONE ROCK      FAIR      37  36  96 CALM      30.38R
6HR MIN TEMP:  32; 6HR MAX TEMP:  38;

MINERAL POINT  CLOUDY    43  28  56 NE6       30.34S
MADISON        MOCLDY    35  31  85 CALM      30.38R
6HR MIN TEMP:  32; 6HR MAX TEMP:  37;

MIDDLETON      FAIR      37  35  94 CALM      30.38R
6HR MIN TEMP:  33; 6HR MAX TEMP:  37;

WATERTOWN      FAIR      32  29  86 CALM      30.38R
6HR MIN TEMP:  30; 6HR MAX TEMP:  35;

MONROE         FAIR      41  23  48 NE6       30.35R
JANESVILLE     MOCLDY    39  30  70 NE7       30.37R WCI  34
$$

WIZ051-052-058>065-066-070>072-221300-
SOUTHEAST WISCONSIN

CITY           SKY/WX    TMP DP  RH WIND       PRES   REMARKS
MILWAUKEE      PTSUNNY   36  28  73 CALM      30.38R
6HR MIN TEMP:  33; 6HR MAX TEMP:  42;

WAUKESHA       CLEAR     34  21  60 CALM      30.39R
MILWAUKEE/TIMM FAIR      32  27  80 CALM      30.40R
RACINE         FAIR      38  24  57 CALM      30.40R
6HR MIN TEMP:  33; 6HR MAX TEMP:  39;

BURLINGTON     FAIR      36  29  77 CALM      30.39R
6HR MIN TEMP:  31; 6HR MAX TEMP:  36;

KENOSHA        FAIR      39  25  57 CALM      30.39R
6HR MIN TEMP:  34; 6HR MAX TEMP:  40;

FOND DU LAC    FAIR      32  27  81 CALM      30.38R
6HR MIN TEMP:  28; 6HR MAX TEMP:  37;

SHEBOYGAN      FAIR      31  30  96 N3        30.38R
6HR MIN TEMP:  27; 6HR MAX TEMP:  35;

WEST BEND      FAIR      30  30 100 CALM      30.39R
JUNEAU         FAIR      33  28  82 CALM      30.39R
6HR MIN TEMP:  32; 6HR MAX TEMP:  39;

$$

LSZ147-162-221300-
LAKE SUPERIOR

STATION/POSITION TIME  TEMP    WIND        PRES    WAVE
                       AIR SEA DIR/SP/G            HT/PER
                 (UTC) (F)     (DEG/KT/KT) (MB)    (FT/S)
DEVILS ISLAND    1200   36     220/  3/  3 1029.3R
SAXON HARBOR     1140   27     180/  2/  2 1027.8R
$$

LMZ867-665-643>646-221300-
LAKE MICHIGAN

STATION/POSITION TIME  TEMP    WIND        PRES    W



USA.gov is the U.S. government's official web portal to all federal, state and local government web resources and services.